TimePST,TemperatureF,Dew PointF,Humidity,Sea Level PressureIn,VisibilityMPH,Wind Direction,Wind SpeedMPH,Gust SpeedMPH,PrecipitationIn,Events,Conditions,WindDirDegrees,DateUTC
12:53 AM,28.9,21.0,72,29.89,10.0,West,19.6,33.4,0.00,,Partly Cloudy,270,2013-02-23 08:53:00
1:53 AM,27.0,18.0,69,29.94,10.0,West,15.0,-,N/A,,Clear,280,2013-02-23 09:53:00
2:53 AM,27.0,18.0,69,29.97,10.0,West,25.3,32.2,N/A,,Clear,260,2013-02-23 10:53:00
3:53 AM,25.0,17.1,72,30.00,10.0,West,8.1,-,N/A,,Clear,270,2013-02-23 11:53:00
4:53 AM,24.1,17.1,75,30.01,10.0,WSW,12.7,-,N/A,,Clear,240,2013-02-23 12:53:00
5:53 AM,24.1,17.1,75,30.05,10.0,West,8.1,-,N/A,,Scattered Clouds,260,2013-02-23 13:53:00
6:53 AM,24.1,16.0,71,30.08,10.0,WSW,13.8,-,N/A,,Scattered Clouds,240,2013-02-23 14:53:00
7:53 AM,26.1,17.1,69,30.09,10.0,WSW,12.7,24.2,N/A,,Scattered Clouds,240,2013-02-23 15:53:00
8:53 AM,28.9,19.0,67,30.10,10.0,West,21.9,28.8,N/A,,Mostly Cloudy,260,2013-02-23 16:53:00
9:15 AM,30.2,19.4,64,30.04,10.0,West,18.4,29.9,N/A,,Overcast,260,2013-02-23 17:15:00
9:38 AM,30.2,19.4,64,30.05,10.0,West,24.2,29.9,N/A,,Scattered Clouds,270,2013-02-23 17:38:00
9:53 AM,30.9,19.0,61,30.12,10.0,West,18.4,27.6,N/A,,Partly Cloudy,280,2013-02-23 17:53:00
10:53 AM,32.0,19.0,59,30.15,10.0,West,18.4,26.5,N/A,,Mostly Cloudy,280,2013-02-23 18:53:00
11:53 AM,35.1,19.9,54,30.14,10.0,West,20.7,25.3,N/A,,Scattered Clouds,280,2013-02-23 19:53:00
12:53 PM,36.0,19.0,50,30.13,10.0,West,17.3,33.4,N/A,,Scattered Clouds,270,2013-02-23 20:53:00
1:53 PM,36.0,19.0,50,30.13,10.0,West,21.9,33.4,N/A,,Clear,280,2013-02-23 21:53:00
2:53 PM,33.1,19.9,59,30.15,10.0,West,13.8,33.4,N/A,,Scattered Clouds,270,2013-02-23 22:53:00
3:53 PM,34.0,21.0,59,30.18,10.0,West,18.4,24.2,N/A,,Scattered Clouds,260,2013-02-23 23:53:00
4:53 PM,33.1,19.0,56,30.20,10.0,WNW,12.7,21.9,0.00,,Partly Cloudy,290,2013-02-24 00:53:00
5:53 PM,30.0,19.0,64,30.23,10.0,West,12.7,-,N/A,,Clear,280,2013-02-24 01:53:00
6:53 PM,28.9,19.9,69,30.25,10.0,West,13.8,-,N/A,,Clear,280,2013-02-24 02:53:00
7:53 PM,27.0,19.9,75,30.27,10.0,West,16.1,-,N/A,,Clear,280,2013-02-24 03:53:00
8:53 PM,25.0,18.0,75,30.28,10.0,West,17.3,-,N/A,,Clear,280,2013-02-24 04:53:00
9:53 PM,24.1,17.1,75,30.30,10.0,WNW,15.0,-,N/A,,Clear,290,2013-02-24 05:53:00
10:53 PM,24.1,16.0,71,30.32,10.0,SW,9.2,-,N/A,,Clear,230,2013-02-24 06:53:00
11:53 PM,23.0,16.0,74,30.32,10.0,Calm,Calm,-,N/A,,Clear,0,2013-02-24 07:53:00